Las Vegas, NV

2:53 AM PST on February 27, 2017 (GMT -0800)
McCarran International

Weather History for KLAS - December, 2013

Change the Weather History Date:

Thursday, December 12, 2013

  Actual Average Record
Temperature  
Mean Temperature 44 °F 48 °F  
Max Temperature 55 °F 56 °F 74 °F (1958)
Min Temperature 32 °F 39 °F 15 °F (1949)
Degree Days  
Heating Degree Days 21 18  
Month to date heating degree days 275 197  
Since 1 July heating degree days 538 506  
Cooling Degree Days 0 0  
Month to date cooling degree days 0 0  
Year to date cooling degree days 3766 3568  
Moisture  
Dew Point 19 °F    
Average Humidity 39    
Maximum Humidity 56    
Minimum Humidity 22    
Precipitation  
Precipitation 0.00 in 0.02 in 0.30 in (1940)
Month to date precipitation 0.05 0.16  
Year to date precipitation 2.96 3.85  
Snow  
Snow 0.00 in 0.00 in 0.00 in (2013)
Month to date snowfall 0.0 0.1  
Since 1 July snowfall 0.0 0.1  
Snow Depth 0.00 in    
Sea Level Pressure  
Sea Level Pressure 30.21 in    
Wind  
Wind Speed 6 mph (SSW)    
Max Wind Speed 12 mph    
Max Gust Speed 13 mph    
Visibility 10 miles    
Events      
T = Trace of Precipitation, MM = Missing Value Source: NWS Daily Summary

Daily Weather History Graph

Daily Weather History Graph

Search for Another Location

Airport or City:

Trip Planner

Search our weather history database for the weather conditions in past years. The results will help you decide how hot, cold, wet, or windy it might be!

Date:

Astronomy

Dec. 12, 2013 Rise Set
Actual Time 6:42 AM PST 4:26 PM PST
Civil Twilight 6:13 AM PST 4:55 PM PST
Nautical Twilight 5:41 AM PST 5:27 PM PST
Astronomical Twilight 5:10 AM PST 5:58 PM PST
Moon 1:30 PM PST (12/12) 2:15 AM PST (12/12)
Length of Visible Light 10h 41m
Length of Day
9h 44m
Waxing Gibbous, 81% of the Moon is Illuminated
Dec 12
Waxing Gibbous
Dec 17
Full
Dec 25
Last Quarter
Jan 1
New
Jan 7
First Quarter

Hourly Weather History & Observations

Time (PST) Temp. Windchill Dew Point Humidity Pressure Visibility Wind Dir Wind Speed Gust Speed Precip Events Conditions
12:56 AM 36.0 °F 30.3 °F 19.0 °F 50% 30.31 in 10.0 mi SSW 6.9 mph - N/A   Partly Cloudy
1:56 AM 36.0 °F 31.1 °F 19.0 °F 50% 30.31 in 10.0 mi SSW 5.8 mph - N/A   Partly Cloudy
2:56 AM 36.0 °F 30.3 °F 19.0 °F 50% 30.30 in 10.0 mi SSW 6.9 mph - N/A   Clear
3:56 AM 35.1 °F 30.1 °F 19.0 °F 52% 30.29 in 10.0 mi South 5.8 mph - N/A   Clear
4:56 AM 34.0 °F 28.8 °F 19.0 °F 54% 30.29 in 10.0 mi SW 5.8 mph - N/A   Clear
5:56 AM 35.1 °F 29.3 °F 19.0 °F 52% 30.29 in 10.0 mi SW 6.9 mph - N/A   Clear
6:56 AM 35.1 °F 32.2 °F 19.0 °F 52% 30.30 in 10.0 mi SW 3.5 mph - N/A   Partly Cloudy
7:56 AM 37.9 °F 32.7 °F 19.0 °F 47% 30.30 in 10.0 mi SW 6.9 mph - N/A   Partly Cloudy
8:56 AM 45.0 °F 42.6 °F 18.0 °F 34% 30.29 in 10.0 mi SSE 4.6 mph - N/A   Partly Cloudy
9:56 AM 46.9 °F - 18.0 °F 32% 30.28 in 10.0 mi SSE 4.6 mph - N/A   Partly Cloudy
10:56 AM 50.0 °F - 18.0 °F 28% 30.25 in 10.0 mi South 3.5 mph - N/A   Partly Cloudy
11:56 AM 51.1 °F - 17.1 °F 26% 30.22 in 10.0 mi SSE 3.5 mph - N/A   Partly Cloudy
12:56 PM 54.0 °F - 17.1 °F 23% 30.18 in 10.0 mi Calm Calm - N/A   Partly Cloudy
1:56 PM 54.0 °F - 16.0 °F 22% 30.16 in 10.0 mi South 8.1 mph - N/A   Scattered Clouds
2:56 PM 54.0 °F - 16.0 °F 22% 30.14 in 10.0 mi South 9.2 mph - N/A   Scattered Clouds
3:56 PM 53.1 °F - 15.1 °F 22% 30.14 in 10.0 mi SSW 8.1 mph - N/A   Scattered Clouds
4:56 PM 52.0 °F - 16.0 °F 24% 30.13 in 10.0 mi SSW 8.1 mph - N/A   Scattered Clouds
5:56 PM 50.0 °F - 18.0 °F 28% 30.12 in 10.0 mi South 9.2 mph - N/A   Partly Cloudy
6:56 PM 46.9 °F - 21.0 °F 36% 30.14 in 10.0 mi SW 6.9 mph - N/A   Partly Cloudy
7:56 PM 45.0 °F 40.6 °F 21.0 °F 39% 30.14 in 10.0 mi SSW 8.1 mph - N/A   Clear
8:56 PM 43.0 °F 37.7 °F 21.0 °F 42% 30.13 in 10.0 mi SSW 9.2 mph - N/A   Clear
9:56 PM 43.0 °F 39.5 °F 21.0 °F 42% 30.13 in 10.0 mi SSW 5.8 mph - N/A   Clear
10:56 PM 42.1 °F 36.1 °F 21.0 °F 43% 30.12 in 10.0 mi SSW 10.4 mph - N/A   Clear
11:56 PM 39.9 °F 35.1 °F 21.0 °F 47% 30.11 in 10.0 mi SSW 6.9 mph - N/A   Clear